STARLINK-1394, 45679

Orbit data source: Space-Track

STARLINK-1394, 45679 is a payload satellite owned by SpaceX/Seattle (US) in LEO that was launched on Thu, 04 Jun 2020 UTC via an FALCON 9 launch vehicle from the Air Force Eastern Test Range (AFETR). Payload-class satellites include a variety of spacecraft equipped with specific instruments for various scientific and technological missions. These include communications satellites like Starlink; space stations such as the ISS; scientific satellites like the Hubble; Earth observation satellites from companies like Planet Labs, Umbra, and HawkEye 360; GPS; miniature CubeSats for education and research; and military/defense satellites.

Loading next visibility...
Identifier
45679, 2020-035Y
Orbit
LEO
Country
Flag of USUS
Related business
Manufacturer
SpaceX/Seattle
Mission
Operational Commercial Communications
Bus & Motor
STARLINK, Unknown motor
Mass
260 kg wet, ~248 kg dry
Launch date (UTC)
2020-06-04 (5 years ago)
Launch vehicle
FALCON 9
Launch site
Air Force Eastern Test Range (AFETR)
Object type
Payload
Rocket body
Debris
Shape & HBR
Box + 1 Pan, 10.1 m
Radar Cross Section
13.562 m², Large (>1 m²)

Expand to show TLE details & history
Last TLE update: 19 hours ago

TLE from 19 hours ago
0 STARLINK-1394
1 45679U 20035Y   25287.21560506 -.00002378  00000-0 -14087-3 0  9995
2 45679  53.0555 354.1655 0001343 108.3194 251.7941 15.06377919296792
Epoch: 2025-10-14T05:10Z
TLE epoch observation values (Epoch: 2025-10-14T05:10:28.277Z)
Latitude
-0.00002°
Longitude
-106.45956°
Altitude
548.449 km
Speed
7.589 km/s
True Right ascension
23h 36m 39s
True Declination
0° 00' 00"
Sunlit
Object was in full shadow at epoch
Visualization orbit readout
Latitude
Unknown
Longitude
Unknown
Altitude
Unknown
Speed
Unknown
Apparent Right ascension
Unknown
Apparent Declination
Unknown
Sunlit
N/A
Visualization observer readout
Local Sidereal Time
19:01:13
Azimuth
Unknown
Elevation
Unknown
Doppler factor
Unknown
Orbital elements
Apogee altitude
548.48 km
Perigee altitude
546.62 km
Semi-major axis
6,925.687 km
Eccentricity
0.00013
Inclination
53.0555°
RAAN
354.1655°
Arg. of periapsis
108.3194°
True anomaly
251.77948°
Mean anomaly
251.7941°
Eccentric anomaly
251.78679°
Mean motion
3.76573 °/min
Orbital period
95.6 mins
BSTAR
-0.00014087
Loading maneuver chart data...
Computing Atmospheric mass density...
Loading historical data...
Loading historical data...
Loading historical data...
Loading historical data...
Loading historical data...
Loading historical data...
Loading historical data...

Documentation

Showing up to 5 results
|